User: anonymous   Login
Location: The Jewett Observatory
(46.7288°N, 117.1525°W)
Time: 06:32:15
(UTC-07:00)
Language:

Cosmos 1844 Rocket - Orbit

View from above orbital plane
View from above orbital plane
View from above satellite
View from above satellite

Ground track
Ground track

The orbit data is extracted from the following two-line orbital elements,

1 17974U 87041B   14296.63667716 -.00000049  00000-0 -51527-6 0  2435
2 17974 071.0072 148.2488 0011941 065.7922 353.2974 14.17123340419608
Epoch (UTC): 23 October 2014 15:16:48
Eccentricity: 0.0011941
inclination: 71.0072°
perigee height: 826 km
apogee height: 844 km
right ascension of ascending node: 148.2488°
argument of perigee: 65.7922°
revolutions per day: 14.17123340
mean anomaly at epoch: 353.2974°
orbit number at epoch: 41960

The dashed part of the orbit path shows where the satellite is in the earth's shadow,  

DLR